Location: Bilsen
(53.7722°N, 9.8765°E)
Time: 04:48:12
(UTC+00:00)

USA 215 - Pass Details

Date: 18 February 2020
Orbit: 1098 x 1110 km, 123.0° (Epoch: 08 March)

Event Time Altitude Azimuth Distance (km) Brightness Sun altitude
Rises 04:10:41 0° 74° (ENE) 3,920 7.7 -21.9°
Reaches altitude 10° 04:13:10 10° 73° (ENE) 2,963 6.7 -21.5°
Maximum altitude 04:19:40 72° 351° (N) 1,159 3.3 -20.5°
Enters shadow 04:22:54 32° 275° (W) 1,786 3.8 -20.1°
